Time,TemperatureF,DewpointF,PressureIn,WindDirection,WindDirectionDegrees,WindSpeedMPH,WindSpeedGustMPH,Humidity,HourlyPrecipIn,Conditions,Clouds,dailyrainin,SoftwareType,DateUTC
2013-03-16 00:00:00,40.9,29.7,29.78,NW,313,1.0,2.0,64,0.00,,,0.00,WeatherCatV1.13B119,2013-03-16 04:00:00,
2013-03-16 00:01:00,40.9,29.7,29.78,North,350,2.0,5.0,64,0.00,,,0.00,WeatherCatV1.13B119,2013-03-16 04:01:00,
2013-03-16 00:06:00,40.8,29.6,29.79,North,350,0.0,1.0,64,0.00,,,0.00,WeatherCatV1.13B119,2013-03-16 04:06:00,
2013-03-16 00:11:00,40.7,29.5,29.79,WNW,284,1.0,3.0,64,0.00,,,0.00,WeatherCatV1.13B119,2013-03-16 04:11:00,
2013-03-16 00:16:00,40.6,29.0,29.79,North,354,1.0,3.0,63,0.00,,,0.00,WeatherCatV1.13B119,2013-03-16 04:16:00,
2013-03-16 00:21:00,40.5,28.9,29.79,NNW,341,2.0,2.0,63,0.00,,,0.00,WeatherCatV1.13B119,2013-03-16 04:21:00,
2013-03-16 00:26:00,40.4,28.8,29.79,NNW,347,3.0,3.0,63,0.00,,,0.00,WeatherCatV1.13B119,2013-03-16 04:26:00,
2013-03-16 00:31:00,40.2,28.6,29.78,NW,313,1.0,3.0,63,0.00,,,0.00,WeatherCatV1.13B119,2013-03-16 04:31:00,
2013-03-16 00:36:00,40.1,28.5,29.78,West,264,1.0,3.0,63,0.00,,,0.00,WeatherCatV1.13B119,2013-03-16 04:36:00,
2013-03-16 00:41:00,40.0,28.4,29.78,WNW,284,1.0,1.0,63,0.00,,,0.00,WeatherCatV1.13B119,2013-03-16 04:41:00,
2013-03-16 00:46:00,39.9,28.0,29.78,NW,320,1.0,6.0,62,0.00,,,0.00,WeatherCatV1.13B119,2013-03-16 04:46:00,
2013-03-16 00:51:00,39.9,28.0,29.78,NNW,346,0.0,1.0,62,0.00,,,0.00,WeatherCatV1.13B119,2013-03-16 04:51:00,
2013-03-16 00:56:00,39.7,27.8,29.78,North,0,4.0,4.0,62,0.00,,,0.00,WeatherCatV1.13B119,2013-03-16 04:56:00,
2013-03-16 01:01:00,39.6,27.3,29.78,NNW,346,0.0,2.0,61,0.00,,,0.00,WeatherCatV1.13B119,2013-03-16 05:01:00,
2013-03-16 01:06:00,39.5,26.8,29.78,North,0,0.0,3.0,60,0.00,,,0.00,WeatherCatV1.13B119,2013-03-16 05:06:00,
2013-03-16 01:11:00,39.4,26.3,29.78,NNE,23,0.0,3.0,59,0.00,,,0.00,WeatherCatV1.13B119,2013-03-16 05:11:00,
2013-03-16 01:16:00,39.3,26.2,29.78,North,0,2.0,4.0,59,0.00,,,0.00,WeatherCatV1.13B119,2013-03-16 05:16:00,
2013-03-16 01:21:00,39.2,25.7,29.78,North,353,0.0,2.0,58,0.00,,,0.00,WeatherCatV1.13B119,2013-03-16 05:21:00,
2013-03-16 01:26:00,39.1,25.6,29.78,North,352,3.0,3.0,58,0.00,,,0.00,WeatherCatV1.13B119,2013-03-16 05:26:00,
2013-03-16 01:31:00,39.1,25.6,29.78,North,356,0.0,2.0,58,0.00,,,0.00,WeatherCatV1.13B119,2013-03-16 05:31:00,
2013-03-16 01:36:00,39.0,25.5,29.78,West,273,0.0,1.0,58,0.00,,,0.00,WeatherCatV1.13B119,2013-03-16 05:36:00,
2013-03-16 01:41:00,38.9,25.8,29.78,SW,231,0.0,1.0,59,0.00,,,0.00,WeatherCatV1.13B119,2013-03-16 05:41:00,
2013-03-16 01:46:00,38.7,25.2,29.79,North,351,0.0,1.0,58,0.00,,,0.00,WeatherCatV1.13B119,2013-03-16 05:46:00,
2013-03-16 01:51:00,38.6,25.1,29.79,North,351,0.0,2.0,58,0.00,,,0.00,WeatherCatV1.13B119,2013-03-16 05:51:00,
2013-03-16 01:56:00,38.5,25.0,29.79,North,351,0.0,1.0,58,0.00,,,0.00,WeatherCatV1.13B119,2013-03-16 05:56:00,
2013-03-16 02:01:00,38.3,24.8,29.79,North,351,1.0,1.0,58,0.00,,,0.00,WeatherCatV1.13B119,2013-03-16 06:01:00,
2013-03-16 02:06:00,38.2,24.7,29.79,North,351,1.0,1.0,58,0.00,,,0.00,WeatherCatV1.13B119,2013-03-16 06:06:00,
2013-03-16 02:11:00,38.1,24.6,29.79,North,351,1.0,1.0,58,0.00,,,0.00,WeatherCatV1.13B119,2013-03-16 06:11:00,
2013-03-16 02:16:00,38.0,24.6,29.79,North,351,0.0,1.0,58,0.00,,,0.00,WeatherCatV1.13B119,2013-03-16 06:16:00,
2013-03-16 02:21:00,37.9,24.5,29.79,North,351,1.0,1.0,58,0.00,,,0.00,WeatherCatV1.13B119,2013-03-16 06:21:00,
2013-03-16 02:26:00,37.8,24.4,29.79,North,351,0.0,2.0,58,0.00,,,0.00,WeatherCatV1.13B119,2013-03-16 06:26:00,
2013-03-16 02:31:00,37.8,24.0,29.79,West,275,1.0,4.0,57,0.00,,,0.00,WeatherCatV1.13B119,2013-03-16 06:31:00,
2013-03-16 02:36:00,37.8,24.0,29.79,West,277,0.0,2.0,57,0.00,,,0.00,WeatherCatV1.13B119,2013-03-16 06:36:00,
2013-03-16 02:41:00,37.8,24.0,29.79,West,277,0.0,1.0,57,0.00,,,0.00,WeatherCatV1.13B119,2013-03-16 06:41:00,
2013-03-16 02:46:00,37.8,24.0,29.79,West,276,0.0,2.0,57,0.00,,,0.00,WeatherCatV1.13B119,2013-03-16 06:46:00,
2013-03-16 02:51:00,37.7,23.9,29.80,West,265,1.0,2.0,57,0.00,,,0.00,WeatherCatV1.13B119,2013-03-16 06:51:00,
2013-03-16 02:56:00,37.7,23.9,29.80,WSW,237,3.0,3.0,57,0.00,,,0.00,WeatherCatV1.13B119,2013-03-16 06:56:00,
2013-03-16 03:01:00,37.6,23.8,29.80,NW,326,0.0,1.0,57,0.00,,,0.00,WeatherCatV1.13B119,2013-03-16 07:01:00,
2013-03-16 03:06:00,37.5,23.7,29.80,NW,326,1.0,1.0,57,0.00,,,0.00,WeatherCatV1.13B119,2013-03-16 07:06:00,
2013-03-16 03:11:00,37.4,23.6,29.80,NW,326,0.0,0.0,57,0.00,,,0.00,WeatherCatV1.13B119,2013-03-16 07:11:00,
2013-03-16 03:16:00,37.3,23.5,29.80,NW,326,0.0,1.0,57,0.00,,,0.00,WeatherCatV1.13B119,2013-03-16 07:16:00,
2013-03-16 03:21:00,37.2,23.8,29.80,NW,326,0.0,2.0,58,0.00,,,0.00,WeatherCatV1.13B119,2013-03-16 07:21:00,
2013-03-16 03:26:00,37.1,23.7,29.80,NW,326,0.0,0.0,58,0.00,,,0.00,WeatherCatV1.13B119,2013-03-16 07:26:00,
2013-03-16 03:31:00,37.0,23.6,29.80,NW,326,0.0,1.0,58,0.00,,,0.00,WeatherCatV1.13B119,2013-03-16 07:31:00,
2013-03-16 03:36:00,36.8,23.8,29.81,NW,326,0.0,0.0,59,0.00,,,0.00,WeatherCatV1.13B119,2013-03-16 07:36:00,
2013-03-16 03:41:00,36.7,23.7,29.80,NW,326,0.0,1.0,59,0.00,,,0.00,WeatherCatV1.13B119,2013-03-16 07:41:00,
2013-03-16 03:46:00,36.5,23.6,29.80,NW,326,0.0,0.0,59,0.00,,,0.00,WeatherCatV1.13B119,2013-03-16 07:46:00,
2013-03-16 03:51:00,36.3,23.8,29.80,NW,326,0.0,0.0,60,0.00,,,0.00,WeatherCatV1.13B119,2013-03-16 07:51:00,
2013-03-16 03:56:00,36.1,23.6,29.80,NW,326,0.0,0.0,60,0.00,,,0.00,WeatherCatV1.13B119,2013-03-16 07:56:00,
2013-03-16 04:01:00,35.9,23.8,29.80,NW,326,1.0,1.0,61,0.00,,,0.00,WeatherCatV1.13B119,2013-03-16 08:01:00,
2013-03-16 04:06:00,35.8,23.7,29.80,NW,326,0.0,0.0,61,0.00,,,0.00,WeatherCatV1.13B119,2013-03-16 08:06:00,
2013-03-16 04:11:00,35.5,23.8,29.80,NW,326,0.0,1.0,62,0.00,,,0.00,WeatherCatV1.13B119,2013-03-16 08:11:00,
2013-03-16 04:16:00,35.3,23.6,29.80,NW,326,0.0,0.0,62,0.00,,,0.00,WeatherCatV1.13B119,2013-03-16 08:16:00,
2013-03-16 04:21:00,35.2,23.9,29.81,NW,326,0.0,0.0,63,0.00,,,0.00,WeatherCatV1.13B119,2013-03-16 08:21:00,
2013-03-16 04:26:00,35.1,23.8,29.81,NW,326,0.0,0.0,63,0.00,,,0.00,WeatherCatV1.13B119,2013-03-16 08:26:00,
2013-03-16 04:31:00,35.0,24.1,29.81,NW,326,0.0,1.0,64,0.00,,,0.00,WeatherCatV1.13B119,2013-03-16 08:31:00,
2013-03-16 04:36:00,34.9,24.0,29.81,NW,326,0.0,0.0,64,0.00,,,0.00,WeatherCatV1.13B119,2013-03-16 08:36:00,
2013-03-16 04:41:00,34.8,23.9,29.81,NW,326,0.0,1.0,64,0.00,,,0.00,WeatherCatV1.13B119,2013-03-16 08:41:00,
2013-03-16 04:46:00,34.7,23.8,29.81,NW,326,0.0,0.0,64,0.00,,,0.00,WeatherCatV1.13B119,2013-03-16 08:46:00,
2013-03-16 04:51:00,34.7,24.2,29.81,NW,326,0.0,0.0,65,0.00,,,0.00,WeatherCatV1.13B119,2013-03-16 08:51:00,
2013-03-16 04:56:00,34.6,24.1,29.81,NW,326,0.0,2.0,65,0.00,,,0.00,WeatherCatV1.13B119,2013-03-16 08:56:00,
2013-03-16 05:01:00,34.7,23.8,29.82,NW,326,0.0,2.0,64,0.00,,,0.00,WeatherCatV1.13B119,2013-03-16 09:01:00,
2013-03-16 05:06:00,34.8,23.1,29.82,NNW,346,3.0,5.0,62,0.00,,,0.00,WeatherCatV1.13B119,2013-03-16 09:06:00,
2013-03-16 05:11:00,35.1,23.0,29.82,NNW,343,5.0,5.0,61,0.00,,,0.00,WeatherCatV1.13B119,2013-03-16 09:11:00,
2013-03-16 05:16:00,35.3,22.4,29.82,NNW,348,1.0,3.0,59,0.00,,,0.00,WeatherCatV1.13B119,2013-03-16 09:16:00,
2013-03-16 05:21:00,35.5,22.6,29.82,NNW,348,0.0,1.0,59,0.00,,,0.00,WeatherCatV1.13B119,2013-03-16 09:21:00,
2013-03-16 05:26:00,35.5,22.2,29.82,North,3,1.0,5.0,58,0.00,,,0.00,WeatherCatV1.13B119,2013-03-16 09:26:00,
2013-03-16 05:31:00,35.4,22.1,29.83,North,3,1.0,3.0,58,0.00,,,0.00,WeatherCatV1.13B119,2013-03-16 09:31:00,
2013-03-16 05:36:00,35.3,21.6,29.82,NNW,342,1.0,2.0,57,0.00,,,0.00,WeatherCatV1.13B119,2013-03-16 09:36:00,
2013-03-16 05:41:00,35.3,21.6,29.83,NNW,342,0.0,1.0,57,0.00,,,0.00,WeatherCatV1.13B119,2013-03-16 09:41:00,
2013-03-16 05:46:00,35.2,21.5,29.83,NNW,342,0.0,1.0,57,0.00,,,0.00,WeatherCatV1.13B119,2013-03-16 09:46:00,
2013-03-16 05:51:00,35.1,21.4,29.83,NNW,342,0.0,3.0,57,0.00,,,0.00,WeatherCatV1.13B119,2013-03-16 09:51:00,
2013-03-16 05:56:00,35.1,21.8,29.83,NNW,342,1.0,2.0,58,0.00,,,0.00,WeatherCatV1.13B119,2013-03-16 09:56:00,
2013-03-16 06:01:00,35.0,21.7,29.84,NNW,342,0.0,0.0,58,0.00,,,0.00,WeatherCatV1.13B119,2013-03-16 10:01:00,
2013-03-16 06:06:00,34.9,21.6,29.83,NNW,342,1.0,1.0,58,0.00,,,0.00,WeatherCatV1.13B119,2013-03-16 10:06:00,
2013-03-16 06:11:00,34.8,22.0,29.84,NNW,342,0.0,0.0,59,0.00,,,0.00,WeatherCatV1.13B119,2013-03-16 10:11:00,
2013-03-16 06:16:00,34.6,21.8,29.84,NNW,342,0.0,0.0,59,0.00,,,0.00,WeatherCatV1.13B119,2013-03-16 10:16:00,
2013-03-16 06:21:00,34.6,21.8,29.84,NNW,342,0.0,0.0,59,0.00,,,0.00,WeatherCatV1.13B119,2013-03-16 10:21:00,
2013-03-16 06:26:00,34.5,21.7,29.84,NNW,342,0.0,0.0,59,0.00,,,0.00,WeatherCatV1.13B119,2013-03-16 10:26:00,
2013-03-16 06:31:00,34.3,21.5,29.84,NNW,342,0.0,0.0,59,0.00,,,0.00,WeatherCatV1.13B119,2013-03-16 10:31:00,
2013-03-16 06:36:00,34.3,21.9,29.84,NNW,342,0.0,0.0,60,0.00,,,0.00,WeatherCatV1.13B119,2013-03-16 10:36:00,
2013-03-16 06:41:00,34.2,21.8,29.84,NNW,342,0.0,0.0,60,0.00,,,0.00,WeatherCatV1.13B119,2013-03-16 10:41:00,
2013-03-16 06:46:00,34.0,21.6,29.84,NNW,342,0.0,0.0,60,0.00,,,0.00,WeatherCatV1.13B119,2013-03-16 10:46:00,
2013-03-16 06:51:00,33.9,21.5,29.84,NNW,342,0.0,0.0,60,0.00,,,0.00,WeatherCatV1.13B119,2013-03-16 10:51:00,
2013-03-16 06:56:00,33.7,21.7,29.84,NNW,342,0.0,0.0,61,0.00,,,0.00,WeatherCatV1.13B119,2013-03-16 10:56:00,
2013-03-16 07:01:00,33.6,22.0,29.84,NNW,342,0.0,0.0,62,0.00,,,0.00,WeatherCatV1.13B119,2013-03-16 11:01:00,
2013-03-16 07:06:00,33.5,22.3,29.84,NNW,342,0.0,0.0,63,0.00,,,0.00,WeatherCatV1.13B119,2013-03-16 11:06:00,
2013-03-16 07:11:00,33.3,22.1,29.84,NNW,342,0.0,0.0,63,0.00,,,0.00,WeatherCatV1.13B119,2013-03-16 11:11:00,
2013-03-16 07:16:00,33.2,22.4,29.84,NNW,342,0.0,0.0,64,0.00,,,0.00,WeatherCatV1.13B119,2013-03-16 11:16:00,
2013-03-16 07:21:00,33.1,22.3,29.84,NNW,342,0.0,0.0,64,0.00,,,0.00,WeatherCatV1.13B119,2013-03-16 11:21:00,
2013-03-16 07:26:00,32.9,22.4,29.84,NNW,342,0.0,0.0,65,0.00,,,0.00,WeatherCatV1.13B119,2013-03-16 11:26:00,
2013-03-16 07:31:00,32.8,22.3,29.84,NNW,342,0.0,0.0,65,0.00,,,0.00,WeatherCatV1.13B119,2013-03-16 11:31:00,
2013-03-16 07:36:00,32.7,22.6,29.85,NNW,342,0.0,0.0,66,0.00,,,0.00,WeatherCatV1.13B119,2013-03-16 11:36:00,
2013-03-16 07:41:00,32.7,22.6,29.85,NNW,342,0.0,1.0,66,0.00,,,0.00,WeatherCatV1.13B119,2013-03-16 11:41:00,
2013-03-16 07:46:00,32.8,22.7,29.85,NNW,342,0.0,0.0,66,0.00,,,0.00,WeatherCatV1.13B119,2013-03-16 11:46:00,
2013-03-16 07:51:00,33.0,22.5,29.85,NNW,342,0.0,1.0,65,0.00,,,0.00,WeatherCatV1.13B119,2013-03-16 11:51:00,
2013-03-16 07:56:00,33.2,22.4,29.85,NNW,342,1.0,1.0,64,0.00,,,0.00,WeatherCatV1.13B119,2013-03-16 11:56:00,
2013-03-16 08:01:00,33.4,22.2,29.86,NNW,342,0.0,1.0,63,0.00,,,0.00,WeatherCatV1.13B119,2013-03-16 12:01:00,
2013-03-16 08:06:00,33.7,22.1,29.85,NNW,342,0.0,0.0,62,0.00,,,0.00,WeatherCatV1.13B119,2013-03-16 12:06:00,
2013-03-16 08:11:00,33.9,22.7,29.86,NNW,342,0.0,0.0,63,0.00,,,0.00,WeatherCatV1.13B119,2013-03-16 12:11:00,
2013-03-16 08:16:00,34.1,22.1,29.86,NNW,342,0.0,1.0,61,0.00,,,0.00,WeatherCatV1.13B119,2013-03-16 12:16:00,
2013-03-16 08:21:00,34.3,22.3,29.86,NNW,342,0.0,1.0,61,0.00,,,0.00,WeatherCatV1.13B119,2013-03-16 12:21:00,
2013-03-16 08:26:00,34.5,22.1,29.86,NNW,342,1.0,1.0,60,0.00,,,0.00,WeatherCatV1.13B119,2013-03-16 12:26:00,
2013-03-16 08:31:00,34.6,22.2,29.86,NNW,342,0.0,1.0,60,0.00,,,0.00,WeatherCatV1.13B119,2013-03-16 12:31:00,
2013-03-16 08:36:00,34.7,21.9,29.86,NNW,342,0.0,1.0,59,0.00,,,0.00,WeatherCatV1.13B119,2013-03-16 12:36:00,
2013-03-16 08:41:00,34.8,22.0,29.86,NNW,342,1.0,1.0,59,0.00,,,0.00,WeatherCatV1.13B119,2013-03-16 12:41:00,
2013-03-16 08:46:00,34.9,21.6,29.86,NNW,342,1.0,3.0,58,0.00,,,0.00,WeatherCatV1.13B119,2013-03-16 12:46:00,
2013-03-16 08:51:00,35.0,21.3,29.86,NNW,342,0.0,1.0,57,0.00,,,0.00,WeatherCatV1.13B119,2013-03-16 12:51:00,
2013-03-16 08:56:00,35.0,20.9,29.87,NNW,342,0.0,2.0,56,0.00,,,0.00,WeatherCatV1.13B119,2013-03-16 12:56:00,
2013-03-16 09:01:00,35.1,21.0,29.86,NNW,342,2.0,3.0,56,0.00,,,0.00,WeatherCatV1.13B119,2013-03-16 13:01:00,
2013-03-16 09:06:00,35.1,21.0,29.87,NNE,26,1.0,3.0,56,0.00,,,0.00,WeatherCatV1.13B119,2013-03-16 13:06:00,
2013-03-16 09:11:00,35.1,21.0,29.87,NNE,19,1.0,1.0,56,0.00,,,0.00,WeatherCatV1.13B119,2013-03-16 13:11:00,
2013-03-16 09:16:00,35.2,21.1,29.86,NNE,18,0.0,5.0,56,0.00,,,0.00,WeatherCatV1.13B119,2013-03-16 13:16:00,
2013-03-16 09:21:00,35.3,21.6,29.86,NNE,18,2.0,3.0,57,0.00,,,0.00,WeatherCatV1.13B119,2013-03-16 13:21:00,
2013-03-16 09:26:00,35.5,21.4,29.86,NNW,341,2.0,3.0,56,0.00,,,0.00,WeatherCatV1.13B119,2013-03-16 13:26:00,
2013-03-16 09:31:00,35.5,21.8,29.85,NNE,22,1.0,2.0,57,0.00,,,0.00,WeatherCatV1.13B119,2013-03-16 13:31:00,
2013-03-16 09:36:00,35.6,21.9,29.85,NNE,17,1.0,2.0,57,0.00,,,0.00,WeatherCatV1.13B119,2013-03-16 13:36:00,
2013-03-16 09:41:00,35.6,21.9,29.85,NE,56,2.0,4.0,57,0.00,,,0.00,WeatherCatV1.13B119,2013-03-16 13:41:00,
2013-03-16 09:46:00,35.6,21.5,29.85,ENE,67,0.0,3.0,56,0.00,,,0.00,WeatherCatV1.13B119,2013-03-16 13:46:00,
2013-03-16 09:51:00,35.6,21.9,29.85,NE,37,3.0,3.0,57,0.00,,,0.00,WeatherCatV1.13B119,2013-03-16 13:51:00,
2013-03-16 09:56:00,35.6,21.9,29.85,NNE,24,2.0,5.0,57,0.00,,,0.00,WeatherCatV1.13B119,2013-03-16 13:56:00,
2013-03-16 10:01:00,35.3,22.0,29.85,NE,52,1.0,3.0,58,0.00,,,0.00,WeatherCatV1.13B119,2013-03-16 14:01:00,
2013-03-16 10:06:00,35.3,22.0,29.85,NNE,23,2.0,2.0,58,0.00,,,0.00,WeatherCatV1.13B119,2013-03-16 14:06:00,
2013-03-16 10:11:00,35.3,22.0,29.85,NNE,27,1.0,5.0,58,0.00,,,0.00,WeatherCatV1.13B119,2013-03-16 14:11:00,
2013-03-16 10:16:00,35.2,21.9,29.85,NNE,17,2.0,3.0,58,0.00,,,0.00,WeatherCatV1.13B119,2013-03-16 14:16:00,
2013-03-16 10:21:00,35.3,22.4,29.85,NNE,17,1.0,3.0,59,0.00,,,0.00,WeatherCatV1.13B119,2013-03-16 14:21:00,
2013-03-16 10:26:00,35.5,22.6,29.85,NNE,17,0.0,3.0,59,0.00,,,0.00,WeatherCatV1.13B119,2013-03-16 14:26:00,
2013-03-16 10:31:00,35.8,23.3,29.85,NNE,17,2.0,5.0,60,0.00,,,0.00,WeatherCatV1.13B119,2013-03-16 14:31:00,
2013-03-16 10:36:00,35.9,23.0,29.85,ENE,62,3.0,4.0,59,0.00,,,0.00,WeatherCatV1.13B119,2013-03-16 14:36:00,
2013-03-16 10:41:00,35.8,22.5,29.85,ENE,64,1.0,3.0,58,0.00,,,0.00,WeatherCatV1.13B119,2013-03-16 14:41:00,
2013-03-16 10:46:00,35.7,23.2,29.85,NNE,19,2.0,5.0,60,0.00,,,0.00,WeatherCatV1.13B119,2013-03-16 14:46:00,
2013-03-16 10:51:00,35.7,23.2,29.85,ENE,59,2.0,3.0,60,0.00,,,0.00,WeatherCatV1.13B119,2013-03-16 14:51:00,
2013-03-16 10:56:00,35.8,22.9,29.85,ENE,69,2.0,5.0,59,0.00,,,0.00,WeatherCatV1.13B119,2013-03-16 14:56:00,
2013-03-16 11:01:00,36.0,23.1,29.84,NE,51,2.0,4.0,59,0.00,,,0.00,WeatherCatV1.13B119,2013-03-16 15:01:00,
2013-03-16 11:06:00,36.1,23.2,29.85,NNE,17,0.0,1.0,59,0.00,,,0.00,WeatherCatV1.13B119,2013-03-16 15:06:00,
2013-03-16 11:11:00,36.0,22.7,29.85,NE,49,2.0,2.0,58,0.00,,,0.00,WeatherCatV1.13B119,2013-03-16 15:11:00,
2013-03-16 11:16:00,36.0,22.3,29.84,ENE,75,1.0,2.0,57,0.00,,,0.00,WeatherCatV1.13B119,2013-03-16 15:16:00,
2013-03-16 11:21:00,36.1,22.8,29.84,ENE,75,1.0,1.0,58,0.00,,,0.00,WeatherCatV1.13B119,2013-03-16 15:21:00,
2013-03-16 11:26:00,36.3,23.0,29.85,ENE,75,1.0,1.0,58,0.00,,,0.00,WeatherCatV1.13B119,2013-03-16 15:26:00,
2013-03-16 11:31:00,36.5,22.7,29.85,NE,41,0.0,1.0,57,0.00,,,0.00,WeatherCatV1.13B119,2013-03-16 15:31:00,
2013-03-16 11:36:00,36.6,22.0,29.85,NE,41,2.0,3.0,55,0.00,,,0.00,WeatherCatV1.13B119,2013-03-16 15:36:00,
2013-03-16 11:41:00,36.7,21.6,29.85,NNE,28,2.0,4.0,54,0.00,,,0.00,WeatherCatV1.13B119,2013-03-16 15:41:00,
2013-03-16 11:46:00,36.5,21.9,29.85,ENE,68,2.0,3.0,55,0.00,,,0.00,WeatherCatV1.13B119,2013-03-16 15:46:00,
2013-03-16 11:51:00,36.6,22.4,29.84,ENE,68,1.0,3.0,56,0.00,,,0.00,WeatherCatV1.13B119,2013-03-16 15:51:00,
2013-03-16 11:56:00,36.7,22.5,29.84,ENE,68,2.0,3.0,56,0.00,,,0.00,WeatherCatV1.13B119,2013-03-16 15:56:00,
2013-03-16 12:01:00,36.8,23.0,29.84,ENE,60,0.0,1.0,57,0.00,,,0.00,WeatherCatV1.13B119,2013-03-16 16:01:00,
2013-03-16 12:06:00,37.0,24.0,29.84,ENE,60,0.0,3.0,59,0.00,,,0.00,WeatherCatV1.13B119,2013-03-16 16:06:00,
2013-03-16 12:11:00,37.2,23.4,29.83,ENE,60,2.0,2.0,57,0.00,,,0.00,WeatherCatV1.13B119,2013-03-16 16:11:00,
2013-03-16 12:16:00,37.3,23.5,29.83,ENE,60,2.0,2.0,57,0.00,,,0.00,WeatherCatV1.13B119,2013-03-16 16:16:00,
2013-03-16 12:21:00,37.2,23.4,29.83,ENE,60,0.0,2.0,57,0.00,,,0.00,WeatherCatV1.13B119,2013-03-16 16:21:00,
2013-03-16 12:26:00,37.1,23.3,29.83,ENE,60,1.0,2.0,57,0.00,,,0.00,WeatherCatV1.13B119,2013-03-16 16:26:00,
2013-03-16 12:31:00,37.1,22.9,29.82,NNE,23,1.0,2.0,56,0.00,,,0.00,WeatherCatV1.13B119,2013-03-16 16:31:00,
2013-03-16 12:36:00,37.2,23.8,29.82,NE,50,0.0,2.0,58,0.00,,,0.00,WeatherCatV1.13B119,2013-03-16 16:36:00,
2013-03-16 12:41:00,37.5,24.1,29.82,SSE,150,1.0,3.0,58,0.00,,,0.00,WeatherCatV1.13B119,2013-03-16 16:41:00,
2013-03-16 12:46:00,37.6,24.2,29.82,South,181,2.0,2.0,58,0.00,,,0.00,WeatherCatV1.13B119,2013-03-16 16:46:00,
2013-03-16 12:51:00,37.4,24.0,29.82,South,181,0.0,1.0,58,0.00,,,0.00,WeatherCatV1.13B119,2013-03-16 16:51:00,
2013-03-16 12:56:00,37.3,23.9,29.82,South,181,0.0,1.0,58,0.00,,,0.00,WeatherCatV1.13B119,2013-03-16 16:56:00,
2013-03-16 13:01:00,37.0,24.0,29.82,SE,144,2.0,6.0,59,0.00,,,0.00,WeatherCatV1.13B119,2013-03-16 17:01:00,
2013-03-16 13:06:00,37.0,24.0,29.82,ESE,106,0.0,2.0,59,0.00,,,0.00,WeatherCatV1.13B119,2013-03-16 17:06:00,
2013-03-16 13:11:00,37.0,24.4,29.82,ESE,106,1.0,2.0,60,0.00,,,0.00,WeatherCatV1.13B119,2013-03-16 17:11:00,
2013-03-16 13:16:00,36.8,25.0,29.83,South,187,1.0,2.0,62,0.00,,,0.00,WeatherCatV1.13B119,2013-03-16 17:16:00,
2013-03-16 13:21:00,36.8,25.0,29.82,South,187,1.0,2.0,62,0.00,,,0.00,WeatherCatV1.13B119,2013-03-16 17:21:00,
2013-03-16 13:26:00,36.7,26.1,29.82,South,189,1.0,3.0,65,0.00,,,0.00,WeatherCatV1.13B119,2013-03-16 17:26:00,
2013-03-16 13:31:00,36.3,26.0,29.82,SW,217,1.0,2.0,66,0.00,,,0.00,WeatherCatV1.13B119,2013-03-16 17:31:00,
2013-03-16 13:36:00,35.9,27.1,29.82,SW,217,0.0,0.0,70,0.00,,,0.00,WeatherCatV1.13B119,2013-03-16 17:36:00,
2013-03-16 13:41:00,35.6,26.5,29.82,SW,217,0.0,1.0,69,0.00,,,0.00,WeatherCatV1.13B119,2013-03-16 17:41:00,
2013-03-16 13:46:00,35.5,28.0,29.82,SW,217,1.0,2.0,74,0.00,,,0.00,WeatherCatV1.13B119,2013-03-16 17:46:00,
2013-03-16 13:51:00,35.0,28.2,29.82,SW,217,0.0,2.0,76,0.00,,,0.00,WeatherCatV1.13B119,2013-03-16 17:51:00,
2013-03-16 13:56:00,34.6,28.5,29.82,SW,217,0.0,1.0,78,0.00,,,0.00,WeatherCatV1.13B119,2013-03-16 17:56:00,
2013-03-16 14:01:00,34.4,28.9,29.82,SW,217,0.0,1.0,80,0.00,,,0.00,WeatherCatV1.13B119,2013-03-16 18:01:00,
2013-03-16 14:06:00,34.4,29.5,29.82,SW,217,0.0,1.0,82,0.00,,,0.00,WeatherCatV1.13B119,2013-03-16 18:06:00,
2013-03-16 14:11:00,34.3,29.7,29.82,SW,217,1.0,1.0,83,0.00,,,0.00,WeatherCatV1.13B119,2013-03-16 18:11:00,
2013-03-16 14:16:00,34.0,29.7,29.83,SW,217,0.0,0.0,84,0.00,,,0.00,WeatherCatV1.13B119,2013-03-16 18:16:00,
2013-03-16 14:21:00,33.7,29.7,29.83,SW,217,0.0,1.0,85,0.00,,,0.00,WeatherCatV1.13B119,2013-03-16 18:21:00,
2013-03-16 14:26:00,33.4,29.7,29.83,SW,217,1.0,2.0,86,0.00,,,0.00,WeatherCatV1.13B119,2013-03-16 18:26:00,
2013-03-16 14:31:00,33.2,30.0,29.82,SW,217,0.0,1.0,88,0.00,,,0.00,WeatherCatV1.13B119,2013-03-16 18:31:00,
2013-03-16 14:36:00,33.1,30.2,29.82,SW,221,0.0,1.0,89,0.00,,,0.00,WeatherCatV1.13B119,2013-03-16 18:36:00,
2013-03-16 14:41:00,33.0,30.4,29.82,SW,221,0.0,1.0,90,0.00,,,0.00,WeatherCatV1.13B119,2013-03-16 18:41:00,
2013-03-16 14:46:00,32.9,30.3,29.82,SW,221,0.0,1.0,90,0.00,,,0.00,WeatherCatV1.13B119,2013-03-16 18:46:00,
2013-03-16 14:51:00,32.8,30.2,29.81,SW,221,1.0,1.0,90,0.00,,,0.00,WeatherCatV1.13B119,2013-03-16 18:51:00,
2013-03-16 14:56:00,32.7,30.4,29.81,SW,221,0.0,2.0,91,0.00,,,0.01,WeatherCatV1.13B119,2013-03-16 18:56:00,
2013-03-16 15:01:00,32.7,30.4,29.81,SW,221,0.0,1.0,91,0.00,,,0.01,WeatherCatV1.13B119,2013-03-16 19:01:00,
2013-03-16 15:06:00,32.7,30.4,29.80,SW,221,0.0,1.0,91,0.00,,,0.01,WeatherCatV1.13B119,2013-03-16 19:06:00,
2013-03-16 15:11:00,32.8,30.7,29.80,SW,221,0.0,1.0,92,0.00,,,0.01,WeatherCatV1.13B119,2013-03-16 19:11:00,
2013-03-16 15:16:00,32.8,30.5,29.79,SW,221,1.0,2.0,91,0.00,,,0.01,WeatherCatV1.13B119,2013-03-16 19:16:00,
2013-03-16 15:21:00,32.9,30.8,29.80,SW,221,0.0,2.0,92,0.00,,,0.01,WeatherCatV1.13B119,2013-03-16 19:21:00,
2013-03-16 15:26:00,32.9,30.8,29.79,SW,224,1.0,2.0,92,0.00,,,0.02,WeatherCatV1.13B119,2013-03-16 19:26:00,
2013-03-16 15:31:00,32.9,30.8,29.80,North,9,1.0,3.0,92,0.00,,,0.02,WeatherCatV1.13B119,2013-03-16 19:31:00,
2013-03-16 15:36:00,32.8,30.7,29.80,North,9,0.0,1.0,92,0.00,,,0.02,WeatherCatV1.13B119,2013-03-16 19:36:00,
2013-03-16 15:41:00,32.6,30.5,29.80,NNE,19,1.0,2.0,92,0.00,,,0.02,WeatherCatV1.13B119,2013-03-16 19:41:00,
2013-03-16 15:46:00,32.6,30.5,29.79,NNE,19,1.0,1.0,92,0.00,,,0.02,WeatherCatV1.13B119,2013-03-16 19:46:00,
2013-03-16 15:51:00,32.6,30.5,29.79,NNE,19,0.0,1.0,92,0.00,,,0.02,WeatherCatV1.13B119,2013-03-16 19:51:00,
2013-03-16 15:56:00,32.7,30.6,29.79,NNE,19,0.0,2.0,92,0.00,,,0.02,WeatherCatV1.13B119,2013-03-16 19:56:00,
2013-03-16 16:01:00,32.8,31.0,29.79,NNE,31,1.0,2.0,93,0.00,,,0.02,WeatherCatV1.13B119,2013-03-16 20:01:00,
2013-03-16 16:06:00,32.8,30.7,29.79,ENE,67,1.0,3.0,92,0.00,,,0.02,WeatherCatV1.13B119,2013-03-16 20:06:00,
2013-03-16 16:11:00,32.8,30.7,29.79,NE,48,0.0,2.0,92,0.00,,,0.02,WeatherCatV1.13B119,2013-03-16 20:11:00,
2013-03-16 16:16:00,32.7,30.6,29.79,East,94,1.0,2.0,92,0.00,,,0.02,WeatherCatV1.13B119,2013-03-16 20:16:00,
2013-03-16 16:21:00,32.6,30.5,29.79,East,94,0.0,1.0,92,0.00,,,0.02,WeatherCatV1.13B119,2013-03-16 20:21:00,
2013-03-16 16:26:00,32.6,30.8,29.79,East,95,1.0,1.0,93,0.00,,,0.02,WeatherCatV1.13B119,2013-03-16 20:26:00,
2013-03-16 16:31:00,32.5,30.4,29.78,East,95,0.0,2.0,92,0.00,,,0.02,WeatherCatV1.13B119,2013-03-16 20:31:00,
2013-03-16 16:36:00,32.5,30.7,29.79,East,95,1.0,1.0,93,0.00,,,0.02,WeatherCatV1.13B119,2013-03-16 20:36:00,
2013-03-16 16:41:00,32.3,30.2,29.79,NNE,23,0.0,3.0,92,0.00,,,0.02,WeatherCatV1.13B119,2013-03-16 20:41:00,
2013-03-16 16:46:00,32.3,30.5,29.78,NNE,27,1.0,1.0,93,0.00,,,0.02,WeatherCatV1.13B119,2013-03-16 20:46:00,
2013-03-16 16:51:00,32.4,30.6,29.78,ENE,58,0.0,2.0,93,0.00,,,0.02,WeatherCatV1.13B119,2013-03-16 20:51:00,
2013-03-16 16:56:00,32.5,30.7,29.78,ENE,58,1.0,1.0,93,0.00,,,0.03,WeatherCatV1.13B119,2013-03-16 20:56:00,
2013-03-16 17:01:00,32.6,30.8,29.79,ENE,58,1.0,1.0,93,0.00,,,0.03,WeatherCatV1.13B119,2013-03-16 21:01:00,
2013-03-16 17:06:00,32.5,30.4,29.79,ENE,58,0.0,0.0,92,0.00,,,0.03,WeatherCatV1.13B119,2013-03-16 21:06:00,
2013-03-16 17:12:00,32.6,30.8,29.79,ENE,58,0.0,1.0,93,0.00,,,0.03,WeatherCatV1.13B119,2013-03-16 21:12:00,
2013-03-16 17:17:00,32.6,30.8,29.79,ENE,57,0.0,1.0,93,0.00,,,0.03,WeatherCatV1.13B119,2013-03-16 21:17:00,
2013-03-16 17:22:00,32.6,30.8,29.78,ENE,57,0.0,1.0,93,0.00,,,0.03,WeatherCatV1.13B119,2013-03-16 21:22:00,
2013-03-16 17:27:00,32.6,30.8,29.79,ENE,57,0.0,1.0,93,0.00,,,0.03,WeatherCatV1.13B119,2013-03-16 21:27:00,
2013-03-16 17:32:00,32.7,30.9,29.80,ENE,57,0.0,1.0,93,0.00,,,0.03,WeatherCatV1.13B119,2013-03-16 21:32:00,
2013-03-16 17:37:00,32.7,30.9,29.80,ENE,57,0.0,0.0,93,0.00,,,0.03,WeatherCatV1.13B119,2013-03-16 21:37:00,
2013-03-16 17:42:00,32.7,30.9,29.79,ENE,57,0.0,0.0,93,0.00,,,0.03,WeatherCatV1.13B119,2013-03-16 21:42:00,
2013-03-16 17:47:00,32.7,30.6,29.80,NE,56,0.0,1.0,92,0.00,,,0.03,WeatherCatV1.13B119,2013-03-16 21:47:00,
2013-03-16 17:52:00,32.7,30.6,29.79,ENE,57,0.0,0.0,92,0.00,,,0.03,WeatherCatV1.13B119,2013-03-16 21:52:00,
2013-03-16 17:57:00,32.8,31.0,29.80,NE,56,0.0,0.0,93,0.00,,,0.03,WeatherCatV1.13B119,2013-03-16 21:57:00,
2013-03-16 18:02:00,32.8,31.0,29.79,ENE,57,1.0,1.0,93,0.00,,,0.03,WeatherCatV1.13B119,2013-03-16 22:02:00,
2013-03-16 18:07:00,32.7,30.6,29.79,ENE,57,1.0,1.0,92,0.00,,,0.03,WeatherCatV1.13B119,2013-03-16 22:07:00,
2013-03-16 18:12:00,32.6,30.8,29.79,NE,56,0.0,1.0,93,0.00,,,0.03,WeatherCatV1.13B119,2013-03-16 22:12:00,
2013-03-16 18:17:00,32.6,30.8,29.79,ENE,57,1.0,1.0,93,0.00,,,0.03,WeatherCatV1.13B119,2013-03-16 22:17:00,
2013-03-16 18:22:00,32.6,30.8,29.79,ENE,57,0.0,1.0,93,0.00,,,0.03,WeatherCatV1.13B119,2013-03-16 22:22:00,
2013-03-16 18:27:00,32.7,30.9,29.80,ENE,57,0.0,1.0,93,0.00,,,0.03,WeatherCatV1.13B119,2013-03-16 22:27:00,
2013-03-16 18:32:00,32.6,30.8,29.79,ENE,57,0.0,1.0,93,0.00,,,0.03,WeatherCatV1.13B119,2013-03-16 22:32:00,
2013-03-16 18:37:00,32.5,30.7,29.80,ENE,57,0.0,2.0,93,0.00,,,0.03,WeatherCatV1.13B119,2013-03-16 22:37:00,
2013-03-16 18:42:00,32.5,30.7,29.79,ENE,57,0.0,2.0,93,0.00,,,0.03,WeatherCatV1.13B119,2013-03-16 22:42:00,
2013-03-16 18:47:00,32.4,30.6,29.80,NNE,28,1.0,3.0,93,0.00,,,0.03,WeatherCatV1.13B119,2013-03-16 22:47:00,
2013-03-16 18:52:00,32.3,30.5,29.80,NNE,28,1.0,3.0,93,0.00,,,0.03,WeatherCatV1.13B119,2013-03-16 22:52:00,
2013-03-16 18:57:00,32.2,30.4,29.80,NNE,28,1.0,2.0,93,0.00,,,0.03,WeatherCatV1.13B119,2013-03-16 22:57:00,
2013-03-16 19:02:00,32.1,30.3,29.80,NNE,28,1.0,2.0,93,0.00,,,0.03,WeatherCatV1.13B119,2013-03-16 23:02:00,
2013-03-16 19:07:00,32.0,30.2,29.81,NNE,28,1.0,2.0,93,0.00,,,0.03,WeatherCatV1.13B119,2013-03-16 23:07:00,
2013-03-16 19:12:00,31.9,30.1,29.81,NNE,28,2.0,3.0,93,0.00,,,0.03,WeatherCatV1.13B119,2013-03-16 23:12:00,
2013-03-16 19:17:00,31.9,30.1,29.81,NNE,28,0.0,2.0,93,0.00,,,0.03,WeatherCatV1.13B119,2013-03-16 23:17:00,
2013-03-16 19:22:00,31.9,30.1,29.82,NNE,28,1.0,1.0,93,0.00,,,0.03,WeatherCatV1.13B119,2013-03-16 23:22:00,
2013-03-16 19:27:00,31.9,30.4,29.82,NNE,28,2.0,2.0,94,0.00,,,0.03,WeatherCatV1.13B119,2013-03-16 23:27:00,
2013-03-16 19:32:00,31.9,30.4,29.82,NNE,28,0.0,1.0,94,0.00,,,0.03,WeatherCatV1.13B119,2013-03-16 23:32:00,
2013-03-16 19:37:00,31.8,30.0,29.82,NNE,21,0.0,1.0,93,0.00,,,0.03,WeatherCatV1.13B119,2013-03-16 23:37:00,
2013-03-16 19:42:00,31.7,29.9,29.82,NNE,21,1.0,1.0,93,0.00,,,0.03,WeatherCatV1.13B119,2013-03-16 23:42:00,
2013-03-16 19:47:00,31.7,29.9,29.83,NNE,21,1.0,1.0,93,0.00,,,0.03,WeatherCatV1.13B119,2013-03-16 23:47:00,
2013-03-16 19:52:00,31.8,30.0,29.83,NNE,21,0.0,1.0,93,0.00,,,0.03,WeatherCatV1.13B119,2013-03-16 23:52:00,
2013-03-16 19:57:00,31.8,30.3,29.84,NNE,21,0.0,0.0,94,0.00,,,0.03,WeatherCatV1.13B119,2013-03-16 23:57:00,
2013-03-16 20:02:00,31.9,30.4,29.84,NNE,21,0.0,0.0,94,0.00,,,0.03,WeatherCatV1.13B119,2013-03-17 00:02:00,
2013-03-16 20:07:00,31.9,30.4,29.84,NNE,21,0.0,1.0,94,0.00,,,0.03,WeatherCatV1.13B119,2013-03-17 00:07:00,
2013-03-16 20:12:00,31.9,30.4,29.84,NNE,21,0.0,2.0,94,0.00,,,0.03,WeatherCatV1.13B119,2013-03-17 00:12:00,
2013-03-16 20:17:00,31.8,30.3,29.84,NNE,21,0.0,1.0,94,0.00,,,0.03,WeatherCatV1.13B119,2013-03-17 00:17:00,
2013-03-16 20:22:00,31.9,30.4,29.84,NNE,21,1.0,2.0,94,0.00,,,0.03,WeatherCatV1.13B119,2013-03-17 00:22:00,
2013-03-16 20:27:00,31.9,30.4,29.84,NNE,21,2.0,2.0,94,0.00,,,0.03,WeatherCatV1.13B119,2013-03-17 00:27:00,
2013-03-16 20:32:00,31.9,30.1,29.84,NNE,21,0.0,1.0,93,0.00,,,0.03,WeatherCatV1.13B119,2013-03-17 00:32:00,
2013-03-16 20:37:00,31.9,30.1,29.85,NNE,21,0.0,1.0,93,0.00,,,0.03,WeatherCatV1.13B119,2013-03-17 00:37:00,
2013-03-16 20:42:00,32.0,30.2,29.85,NNE,21,0.0,1.0,93,0.00,,,0.03,WeatherCatV1.13B119,2013-03-17 00:42:00,
2013-03-16 20:47:00,32.0,30.2,29.85,NNE,21,0.0,1.0,93,0.00,,,0.03,WeatherCatV1.13B119,2013-03-17 00:47:00,
2013-03-16 20:52:00,32.1,30.3,29.85,NNE,21,0.0,1.0,93,0.00,,,0.03,WeatherCatV1.13B119,2013-03-17 00:52:00,
2013-03-16 20:57:00,32.1,30.3,29.86,NNE,21,0.0,0.0,93,0.00,,,0.03,WeatherCatV1.13B119,2013-03-17 00:57:00,
2013-03-16 21:02:00,32.2,30.4,29.86,NNE,21,0.0,0.0,93,0.00,,,0.03,WeatherCatV1.13B119,2013-03-17 01:02:00,
2013-03-16 21:07:00,32.1,30.3,29.86,NNE,21,0.0,0.0,93,0.00,,,0.03,WeatherCatV1.13B119,2013-03-17 01:07:00,
2013-03-16 21:12:00,32.1,30.3,29.86,NNE,21,0.0,1.0,93,0.00,,,0.03,WeatherCatV1.13B119,2013-03-17 01:12:00,
2013-03-16 21:17:00,32.1,30.3,29.86,NNE,21,0.0,2.0,93,0.00,,,0.03,WeatherCatV1.13B119,2013-03-17 01:17:00,
2013-03-16 21:22:00,32.1,30.3,29.87,NNE,21,0.0,0.0,93,0.00,,,0.03,WeatherCatV1.13B119,2013-03-17 01:22:00,
2013-03-16 21:27:00,32.1,30.3,29.87,NNE,21,0.0,0.0,93,0.00,,,0.03,WeatherCatV1.13B119,2013-03-17 01:27:00,
2013-03-16 21:32:00,32.1,30.3,29.87,NNE,21,0.0,0.0,93,0.00,,,0.03,WeatherCatV1.13B119,2013-03-17 01:32:00,
2013-03-16 21:37:00,32.1,30.3,29.87,NNE,21,1.0,1.0,93,0.00,,,0.03,WeatherCatV1.13B119,2013-03-17 01:37:00,
2013-03-16 21:42:00,32.1,30.3,29.87,NNE,21,0.0,0.0,93,0.00,,,0.03,WeatherCatV1.13B119,2013-03-17 01:42:00,
2013-03-16 21:47:00,32.1,30.0,29.87,NNE,21,0.0,1.0,92,0.00,,,0.03,WeatherCatV1.13B119,2013-03-17 01:47:00,
2013-03-16 21:52:00,32.0,29.9,29.88,NNE,21,0.0,0.0,92,0.00,,,0.03,WeatherCatV1.13B119,2013-03-17 01:52:00,
2013-03-16 21:57:00,32.0,29.9,29.88,NNE,21,0.0,0.0,92,0.00,,,0.03,WeatherCatV1.13B119,2013-03-17 01:57:00,
2013-03-16 22:02:00,32.0,29.7,29.87,NNE,21,0.0,0.0,91,0.00,,,0.03,WeatherCatV1.13B119,2013-03-17 02:02:00,
2013-03-16 22:07:00,32.0,29.9,29.88,NNE,21,0.0,0.0,92,0.00,,,0.03,WeatherCatV1.13B119,2013-03-17 02:07:00,
2013-03-16 22:12:00,32.0,29.9,29.88,NNE,21,0.0,0.0,92,0.00,,,0.03,WeatherCatV1.13B119,2013-03-17 02:12:00,
2013-03-16 22:17:00,32.0,29.7,29.88,NNE,21,0.0,0.0,91,0.00,,,0.03,WeatherCatV1.13B119,2013-03-17 02:17:00,
2013-03-16 22:22:00,32.0,29.7,29.88,NNE,21,0.0,0.0,91,0.00,,,0.03,WeatherCatV1.13B119,2013-03-17 02:22:00,
2013-03-16 22:27:00,32.1,29.8,29.88,NNE,21,0.0,0.0,91,0.00,,,0.03,WeatherCatV1.13B119,2013-03-17 02:27:00,
2013-03-16 22:32:00,32.1,29.8,29.88,NNE,21,0.0,0.0,91,0.00,,,0.03,WeatherCatV1.13B119,2013-03-17 02:32:00,
2013-03-16 22:37:00,32.1,29.8,29.89,NNE,21,0.0,0.0,91,0.00,,,0.03,WeatherCatV1.13B119,2013-03-17 02:37:00,
2013-03-16 22:42:00,32.2,30.1,29.89,NNE,21,0.0,0.0,92,0.00,,,0.03,WeatherCatV1.13B119,2013-03-17 02:42:00,
2013-03-16 22:47:00,32.2,30.1,29.90,NNE,21,0.0,0.0,92,0.00,,,0.03,WeatherCatV1.13B119,2013-03-17 02:47:00,
2013-03-16 22:52:00,32.3,30.2,29.90,NNE,21,0.0,1.0,92,0.00,,,0.03,WeatherCatV1.13B119,2013-03-17 02:52:00,
2013-03-16 22:57:00,32.3,30.0,29.90,NNE,21,0.0,0.0,91,0.00,,,0.03,WeatherCatV1.13B119,2013-03-17 02:57:00,
2013-03-16 23:02:00,32.3,30.0,29.90,NNE,21,0.0,1.0,91,0.00,,,0.03,WeatherCatV1.13B119,2013-03-17 03:02:00,
2013-03-16 23:07:00,32.3,30.0,29.90,NNE,21,0.0,0.0,91,0.00,,,0.03,WeatherCatV1.13B119,2013-03-17 03:07:00,
2013-03-16 23:12:00,32.3,30.0,29.90,NNE,21,0.0,0.0,91,0.00,,,0.03,WeatherCatV1.13B119,2013-03-17 03:12:00,
2013-03-16 23:17:00,32.3,30.0,29.90,NNE,21,0.0,1.0,91,0.00,,,0.03,WeatherCatV1.13B119,2013-03-17 03:17:00,
2013-03-16 23:22:00,32.3,30.0,29.90,NNE,21,0.0,0.0,91,0.00,,,0.03,WeatherCatV1.13B119,2013-03-17 03:22:00,
2013-03-16 23:27:00,32.3,30.0,29.90,NNE,21,0.0,0.0,91,0.00,,,0.03,WeatherCatV1.13B119,2013-03-17 03:27:00,
2013-03-16 23:32:00,32.4,30.3,29.91,NNE,21,0.0,1.0,92,0.00,,,0.03,WeatherCatV1.13B119,2013-03-17 03:32:00,
2013-03-16 23:37:00,32.4,30.3,29.91,NNE,21,0.0,0.0,92,0.00,,,0.03,WeatherCatV1.13B119,2013-03-17 03:37:00,
2013-03-16 23:42:00,32.4,30.3,29.91,NNE,21,0.0,0.0,92,0.00,,,0.03,WeatherCatV1.13B119,2013-03-17 03:42:00,
2013-03-16 23:47:00,32.4,30.3,29.91,NNE,21,0.0,0.0,92,0.00,,,0.03,WeatherCatV1.13B119,2013-03-17 03:47:00,
2013-03-16 23:52:00,32.4,30.3,29.91,NNE,21,0.0,0.0,92,0.00,,,0.03,WeatherCatV1.13B119,2013-03-17 03:52:00,
2013-03-16 23:57:00,32.5,30.2,29.91,NNE,21,0.0,0.0,91,0.00,,,0.03,WeatherCatV1.13B119,2013-03-17 03:57:00,